Weather History for Winter Haven, FL

Change the Weather History Date:

Tuesday, January 1, 2013

  Actual Average Record
Temperature  
Mean Temperature 64 °F -  
Max Temperature 75 °F 75 °F 87 °F (1955)
Min Temperature 53 °F 54 °F 32 °F (1981)
Degree Days  
Heating Degree Days 1    
Growing Degree Days 14 (Base 50)    
Moisture  
Dew Point 55 °F    
Average Humidity 74    
Maximum Humidity 93    
Minimum Humidity 48    
Precipitation  
Precipitation 0.00 in - - ()
Sea Level Pressure  
Sea Level Pressure 30.14 in    
Wind  
Wind Speed 4 mph (South)    
Max Wind Speed 13 mph    
Max Gust Speed 21 mph    
Visibility 9 miles    
Events      
Averages and records for this station are not official NWS values.
T = Trace of Precipitation, MM = Missing Value Source: NWS Daily Summary

Daily Weather History Graph

Daily Weather History Graph

Search for Another Location

Airport:

Trip Planner

Search our weather history database for the weather conditions in past years. The results will help you decide how hot, cold, wet, or windy it might be!

Date:

Astronomy

Jan. 01, 2013 Rise Set
Actual Time 7:18 AM EST 5:42 PM EST
Civil Twilight 6:52 AM EST 6:08 PM EST
Nautical Twilight 6:23 AM EST 6:37 PM EST
Astronomical Twilight 5:55 AM EST 7:06 PM EST
Moon 9:48 PM EST (1/1) 9:51 AM EST (1/1)
Length of Visible Light 11h 15m
Length of Day
10h 24m
Waning Gibbous, 83% of the Moon is Illuminated
Jan 1
Waning Gibbous
Jan 4
Last Quarter
Jan 11
New
Jan 18
First Quarter
Jan 26
Full

Hourly Weather History & Observations

Time (EST) Temp. Dew Point Humidity Pressure Visibility Wind Dir Wind Speed Gust Speed Precip Events Conditions
12:53 AM 55.0 °F 52.0 °F 89% 30.23 in 8.0 mi East 3.5 mph - N/A   Clear
1:53 AM 55.0 °F 52.0 °F 89% 30.22 in 6.0 mi East 3.5 mph - N/A   Clear
2:53 AM 55.9 °F 54.0 °F 93% 30.20 in 6.0 mi SSE 5.8 mph - N/A   Overcast
3:53 AM 55.9 °F 53.1 °F 90% 30.19 in 7.0 mi SSE 3.5 mph - N/A   Clear
4:53 AM 57.9 °F 54.0 °F 87% 30.17 in 10.0 mi South 4.6 mph - N/A   Clear
5:53 AM 57.0 °F 54.0 °F 89% 30.16 in 10.0 mi Calm Calm - N/A   Clear
6:53 AM 54.0 °F 52.0 °F 93% 30.17 in 7.0 mi Calm Calm - N/A   Clear
7:53 AM 53.1 °F 51.1 °F 93% 30.19 in 5.0 mi Calm Calm - N/A   Scattered Clouds
8:53 AM 59.0 °F 55.9 °F 90% 30.19 in 7.0 mi Calm Calm - N/A   Mostly Cloudy
9:53 AM 66.9 °F 57.0 °F 70% 30.20 in 10.0 mi SSE 4.6 mph - N/A   Clear
10:53 AM 72.0 °F 55.9 °F 57% 30.18 in 10.0 mi South 6.9 mph - N/A   Partly Cloudy
11:53 AM 73.9 °F 55.9 °F 53% 30.16 in 10.0 mi South 12.7 mph 20.7 mph N/A   Partly Cloudy
12:53 PM 73.9 °F 55.0 °F 52% 30.13 in 10.0 mi SSW 11.5 mph - N/A   Mostly Cloudy
1:53 PM 75.9 °F 55.0 °F 48% 30.09 in 10.0 mi South 10.4 mph - N/A   Scattered Clouds
2:53 PM 75.9 °F 55.0 °F 48% 30.08 in 10.0 mi South 8.1 mph - N/A   Clear
3:53 PM 75.9 °F 55.0 °F 48% 30.07 in 10.0 mi SW 8.1 mph - N/A   Partly Cloudy
4:53 PM 73.9 °F 55.9 °F 53% 30.07 in 10.0 mi SW 5.8 mph - N/A   Clear
5:53 PM 71.1 °F 57.0 °F 61% 30.08 in 10.0 mi SSW 3.5 mph - N/A   Mostly Cloudy
6:53 PM 68.0 °F 57.9 °F 70% 30.08 in 10.0 mi SW 3.5 mph - N/A   Mostly Cloudy
7:53 PM 68.0 °F 57.0 °F 68% 30.09 in 10.0 mi WNW 3.5 mph - N/A   Overcast
8:53 PM 64.9 °F 57.0 °F 75% 30.09 in 10.0 mi West 3.5 mph - N/A   Partly Cloudy
9:53 PM 63.0 °F 57.0 °F 81% 30.09 in 10.0 mi Calm Calm - N/A   Partly Cloudy
10:53 PM 60.1 °F 55.9 °F 86% 30.09 in 10.0 mi Calm Calm - N/A   Mostly Cloudy
11:53 PM 61.0 °F 57.9 °F 90% 30.07 in 8.0 mi Calm Calm - N/A   Mostly Cloudy